Weather Service Report


313 
ASUS43 KDTX 171301
RWRMI 
MICHIGAN HOURLY REGIONAL WEATHER ROUNDUP
NATIONAL WEATHER SERVICE DETROIT/PONTIAC MI
800 AM EST TUE JAN 17 2017

NOTE: "FAIR" INDICATES FEW OR NO CLOUDS BELOW 12,000 FEET WITH NO
SIGNIFICANT WEATHER AND/OR OBSTRUCTION TO VISIBILITY.

MIZ047>049-052>055-059>063-066>070-074>076-081>083-171400-
SOUTHEAST LOWER MICHIGAN
  
CITY           SKY/WX    TMP DP  RH WIND       PRES   REMARKS
ADRIAN         LGT RAIN  35  35 100 E8        29.80F FOG     WCI  29  
ALMA           LGT RAIN  33  32  99 NE9       29.82F WCI  25          
ANN ARBOR      LGT RAIN  33  33 100 NE6       29.81F FOG     WCI  28  
BAD AXE        LGT SNOW  33  32  96 E8        29.86F WCI  26          
CARO           LGT SNOW  33  33  98 E7        29.82F WCI  27          
DETROIT CITY   FOG       36  36 100 E3        29.82F VSB 1/2          
DETROIT        LGT RAIN  36  35  96 N6        29.83F VSB 1/8 WCI  31  
FLINT          RAIN      36  35  96 SE7       29.80F WCI  30          
GROSSE ILE     FOG       37  36  99 CALM      29.81S VSB 1/4          
HILLSDALE      DRIZZLE   36  36 100 E5        29.75F WCI  32          
HOWELL         LGT RAIN  34  33  96 SE8       29.78F WCI  27          

CITY           SKY/WX    TMP DP  RH WIND       PRES   REMARKS
JACKSON        CLOUDY    35  35 100 SE7       29.76F FOG     WCI  29  
LAMBERTVILLE   FOG       37  36  95 CALM      29.79F VSB 1/2          
LANSING        CLOUDY    36  33  89 E8        29.76F WCI  30          
LAPEER         NOT AVBL                                               
MASON          CLOUDY    35  35 100 SE9       29.75F WCI  28          
MONROE         MIX PCPN  37  37 100 CALM      29.80F VSB 1/4          
MT. CLEMENS    DRZL/FOG  34  34 100 E3        29.81F VSB 3/4          
PONTIAC        RAIN      33  31  92 E9        29.80F VSB 1/2 WCI  25  
PORT HOPE        N/A     34  34 100 E18       29.87F WCI  23          
PORT HURON     RAIN      34  34 100 E5        29.84F WCI  30          
TRI CITIES     LGT RAIN  33  33 100 N8        29.85R FOG     WCI  26  
MIDLAND        LGT SNOW  33  32  94 E5        29.85R WCI  29          
TROY           LGT SNOW  34  32  94 CALM      29.85S VSB 3/4          
SAGINAW HB     LGT SNOW  34  32  93 NE6       29.83S WCI  29          
$$
MIZ043>046-050>051-056>058-064>065-071>073-077>080-171400-
SOUTHWEST LOWER MICHIGAN
  
CITY           SKY/WX    TMP DP  RH WIND       PRES   REMARKS
BATTLE CREEK   CLOUDY    40  40 100 SE6       29.75S                  
BENTON HARBOR  FOG       44  43  96 SW17G25   29.74R VSB 3/4          
BIG RAPIDS     MIX PCPN  33  31  94 E7        29.78F WCI  26          
COLDWATER      CLOUDY    42  42 100 SE10      29.74F FOG              
FREMONT        DRIZZLE   34  34 100 E6        29.76R WCI  29          
HOLLAND        CLOUDY    37  35  92 E7        29.73F WCI  32          
GRAND RAPIDS   CLOUDY    34  34 100 NE12      29.75F FOG     WCI  25  
IONIA          CLOUDY    32  32 100 NE12      29.77F FOG     WCI  23  
KALAMAZOO      CLOUDY    43  40  89 S5        29.74F FOG              
LUDINGTON      CLOUDY    34  34 100 E9        29.77F WCI  27          
MARSHALL       CLOUDY    38  37  98 E7        29.74F WCI  33          
MOUNT PLEASANT LGT SNOW  32  32  99 NE7       29.82F WCI  26          
MUSKEGON       RAIN      36  34  92 E8        29.76R FOG     WCI  30  
SOUTH HAVEN    LGT RAIN  44  44 100 SW6       29.73R                  
$$
MIZ016>042-171400-
NORTHERN LOWER MICHIGAN
  
CITY           SKY/WX    TMP DP  RH WIND       PRES   REMARKS
ALPENA         LGT RAIN  35  33  92 E12       29.94F FOG     WCI  27  
BELLAIRE       CLOUDY    36  34  91 NE7       29.86F WCI  31          
CADILLAC       FLURRIES  33  32  96 E10       29.79F WCI  25          
CHARLEVOIX     CLOUDY    32  32 100 NE7       29.91F WCI  26          
FRANKFORT      RAIN      36  35  96 E6        29.82S WCI  31          
GAYLORD        LGT RAIN  35  31  85 E7        29.85F WCI  29          
GRAYLING       LGT SNOW  33  32  96 E12       29.85F WCI  25          
HARBOR SPRINGS MIX PCPN  32  31  96 E12       29.89F WCI  23          
HOUGHTON LAKE  MIX PCPN  33  32  96 E14       29.84F FOG     WCI  23  
MANISTEE       MIX PCPN  35  34  96 E7        29.79F WCI  29          
OSCODA         MIX PCPN  36  34  95 NE9       29.90F WCI  29          
PELLSTON       FRZ RAIN  33  29  85 E13       29.93S WCI  24          
ROGERS CITY    LGT SNOW  34  32  93 E8        29.97S WCI  27          
TRAVERSE CITY  LGT RAIN  36  35  96 CALM      29.83F                  
$$
MIZ007>008-015-171400-
EASTERN UPPER MICHIGAN
  
CITY           SKY/WX    TMP DP  RH WIND       PRES   REMARKS
KINROSS        CLOUDY    27  25  92 E7        29.97F WCI  19          
MACKINAC ISLAN LGT SNOW  33  33 100 E15G22    29.95S WCI  23          
NEWBERRY       CLOUDY    25  24  97 NE3       29.95F                  
S. S. MARIE    CLOUDY    28  23  81 E5        29.99S WCI  23          
$$
MIZ004>006-011>014-085-171400-
CENTRAL UPPER MICHIGAN
  
CITY           SKY/WX    TMP DP  RH WIND       PRES   REMARKS
MANISTIQUE     FLURRIES  31  30  97 NE7       29.93F WCI  24          
ESCANABA       CLOUDY    29  27  92 N7        29.91F WCI  22          
SAWYER-GWINN   CLOUDY    27  23  86 N5        29.93F WCI  21          
$$
MIZ001>003-009>011-084-171400-
WESTERN UPPER MICHIGAN
  
CITY           SKY/WX    TMP DP  RH WIND       PRES   REMARKS
IRON MOUNTAIN  CLOUDY    28  21  75 N5        29.89F WCI  23          
HOUGHTON       MOCLDY    31  27  85 E6        29.92F WCI  25          
COPPER HARBOR    N/A     29  27  92 CALM      29.95F                  
IRONWOOD       CLOUDY    22  20  92 CALM      29.92F                  
$$

ABBREVIATIONS USED IN REMARKS
   TC - TEMPERATURE IN CELSIUS
  WCI - WIND CHILL INDEX
   HX - HEAT INDEX
  VSB - VISIBILITY

  

Return to Home page


Western Regional Climate Center, wrcc@dri.edu